Location: Ch�risy
(50.2331°N, 2.9131°E)
Time: 23:18:15
(UTC+00:00)

Okean-O - Pass Details

Date: 17 January 2021
Orbit: 638 x 641 km, 98.2° (Epoch: 01 March)

Event Time Altitude Azimuth Distance (km) Brightness Sun altitude
Rises 18:34:01 0° 172° (S) 2,935 6.0 -21.2°
Reaches altitude 10° 18:36:14 10° 176° (S) 2,030 5.2 -21.6°
Maximum altitude 18:40:37 64° 257° (WSW) 714 3.0 -22.3°
Drops below altitude 10° 18:45:03 10° 340° (NNW) 2,047 5.4 -23.0°
Sets 18:47:18 0° 344° (NNW) 2,961 6.2 -23.4°
